Regional Weather Roundup
Issued by NWS State College, PA

Home | Current Version | Previous Version | Text Only | Print | Product List | Glossary On
Versions: 1 2 3 4 5 6 7 8 9 10 11 12 13 14 15 16 17 18 19 20 21 22 23 24 25 26 27 28 29 30 31 32 33 34 35 36 37 38 39 40 41 42 43 44 45 46 47 48 49 50
194
ASUS41 KCTP 060310
RWRCTP

REGIONAL WEATHER ROUNDUP
NATIONAL WEATHER SERVICE STATE COLLEGE PA
1000 PM EST FRI FEB 05 2016

Note: "fair" indicates few or no clouds below 12,000 feet with no
significant weather and/or obstructions to visibility.

* = STATION THAT DOES NOT REPORT PRECIPITATION /E.G. RAIN...SNOW...ETC/
    THUNDER OR FOG.

PAZ002>004-007>009-013>016-020>023-029>032-060400-
WESTERN PENNSYLVANIA

CITY           SKY/WX    TMP DP  RH WIND       PRES   REMARKS
ERIE           CLEAR     28  16  60 S8        30.31F
MEADVILLE      CLEAR     26  16  65 CALM      30.29F
FRANKLIN*      CLEAR     23  14  68 S5        30.31F
NEW CASTLE     FAIR      26  18  71 S3        30.33F
BEAVER COUNTY  NOT AVBL
BUTLER*        PTCLDY    25  18  74 S3        30.36F
PITTSBURGH INT PTCLDY    25  17  72 CALM      30.33F
PITTSBURGH     PTCLDY    31  16  54 SW6       30.33F
INDIANA*       PTCLDY    23  19  86 CALM      30.36S
LATROBE        CLEAR     25  18  74 CALM      30.35F
WASHINGTON CO* CLEAR     21  16  79 CALM      30.34S
$$

PAZ004>006-010>012-017>019-024>028-033>037-041-042-045-046-049>053-060400-
CENTRAL PENNSYLVANIA

CITY           SKY/WX    TMP DP  RH WIND       PRES   REMARKS
BRADFORD       CLEAR     15  11  83 CALM      30.25F
DUBOIS         CLEAR     23  13  65 CALM      30.28F
CLEARFIELD     CLEAR     26  14  60 SW3       30.31F
JOHNSTOWN      CLEAR     23  12  62 SW3       30.27S
ALTOONA        CLEAR     26  16  65 S6        30.32S
STATE COLLEGE  CLEAR     28  16  61 W5        30.33S
WILLIAMSPORT   CLEAR     29  18  63 W6        30.35R
SELINSGROVE    CLEAR     30  17  58 CALM      30.36S
FT INDIANTOWN  CLEAR     33  15  48 W7        30.35R
CAPITAL CITY   CLEAR     32  15  49 W9        30.36S
HARRISBURG     PTCLDY    32  18  56 NW12      30.36R
YORK           CLEAR     22  17  81 CALM      30.36S
$$

PAZ038>040-043-044-047-048-054-055-060>062-067>071-060400-
EASTERN PENNSYLVANIA

CITY           SKY/WX    TMP DP  RH WIND       PRES   REMARKS
SCRANTON       CLEAR     25  15  66 CALM      30.31R
MOUNT POCONO   CLEAR     22  13  68 NW6       30.24R WCI  14
ALLENTOWN      CLEAR     30  16  56 N3        30.34R
QUAKERTOWN*    CLEAR     25  19  80 CALM      30.34S
READING        CLEAR     30  19  63 CALM      30.34R
LANCASTER      CLEAR     29  18  63 SW5       30.35R
COATESVILLE    CLEAR     30  21  69 NW7       30.34S
POTTSTOWN      CLEAR     30  17  58 CALM      30.36R
BLUE BELL        N/A     32  19  59 CALM      30.34R
DOYLESTOWN     CLEAR     28  15  58 NW3       30.32S
WILLOW GROVE   NOT AVBL
NORTH PHILA    PTCLDY    34  17  50 N3        30.36R
PHILADELPHIA   PTCLDY    35  16  45 N6        30.37R
$$




USA.gov is the U.S. government's official web portal to all federal, state and local government web resources and services.